Other Public Products
Issued by NWS Charleston, SC

Current Version | Previous Version | Graphics & Text | Print | Product List | Glossary On
Versions: 1 2 3 4 5 6 7 8 9 10 11 12 13 14 15 16 17 18 19 20 21 22 23 24 25 26 27 28 29 30 31 32 33 34 35 36 37 38 39 40 41 42 43 44 45 46 47 48 49 50
440
FPUS82 KCHS 231512
OPUCHS

TEST...KCHS/KSAV Gateway Observations...TEST
National Weather Service Charleston SC
1100 AM EDT SUN APR 23 2017

NOTE: "fair" indicates few or no clouds below 12,000 feet with no
significant weather and/or obstructions to visibility.

SCZ050-WAZ558-NCZ071-TXZ119-213-PAZ071-DCZ001-FLZ074-172-MI076-
NYZ176-178-MAZ016-IL014-TNZ027-NJZ106-GAZ044-MD014-231600-

...Gateway Observations for Charleston International...

CITY           SKY/WX    TMP DP  RH WIND       PRES   REMARKS
Chas Airport   MOSUNNY   79  68  69 S8        29.87S
Seattle        CLOUDY    49  44  83 SE5       29.90F
Charlotte      RAIN      52  49  89 NE13      29.98R FOG
Dallas DFW     SUNNY     61  46  57 N9        30.16S
Dallas Love    SUNNY     60  45  57 NW13      30.17S
Philladelphia  MOSUNNY   57  40  52 E7        30.15R
Wash National  PTSUNNY   54  43  66 NE12      30.15R
Baltimore      PTSUNNY   55  42  61 NE10      30.14R
Miami          RAIN      72  69  90 SE6       29.85R FOG
Detroit        MOSUNNY   58  33  39 CALM      30.14F
Newark         MOSUNNY   56  36  47 NE7       30.13S
Laguardia      MOSUNNY   55  35  47 NE6       30.13R
J F K          MOSUNNY   57  36  45 N9        30.14S
Boston Logan   MOSUNNY   51  41  68 SE10      30.10S
Ft. Lauderdale CLOUDY    78  71  79 S8        29.84R
Chicago O`Hare MOSUNNY   60  28  29 W5        30.13F
Chicago Midway MOSUNNY   59  29  31 CALM      30.14F
Houston Bush   MOSUNNY   61  45  55 N16G25    30.11S
Houston Hobby  MOSUNNY   60  44  55 NW15      30.10R
Nashville      DRIZZLE   52  50  93 N9        29.85R
Atlanta        LGT RAIN  64  60  87 SE10      29.85S

$$

GAZ044-118-TXZ119-213-NCZ071-DCZ001-MDZ014-506-PAZ021-071-NJZ106-
NYZ176-178-MAZ106-OHZ011-021-055-MIZ076-KYZ091-ILZ014-INZ047-
MNZ060-ONZ431-231600-

...Gateway Observations for Savannah International...

CITY           SKY/WX    TMP DP  RH WIND       PRES   REMARKS
Savannah Arpt  PTSUNNY   81  62  52 SW5       29.87S
Atlanta        LGT RAIN  64  60  87 SE10      29.85S
Charlotte      RAIN      52  49  89 NE13      29.98R FOG
Dallas DFW     SUNNY     61  46  57 N9        30.16S
Houston Bush   MOSUNNY   61  45  55 N16G25    30.11S
Wash National  PTSUNNY   54  43  66 NE12      30.15R
Wash Dulles    PTSUNNY   53  40  61 NE6       30.13F
Baltimore      PTSUNNY   55  42  61 NE10      30.14R
Philadelphia   MOSUNNY   57  40  52 E7        30.15R
Newark         MOSUNNY   56  36  47 NE7       30.13S
Laguardia      MOSUNNY   55  35  47 NE6       30.13R
J F K          MOSUNNY   57  36  45 N9        30.14S
Boston         MOSUNNY   51  41  68 SE10      30.10S
Pittsburg      MOSUNNY   55  35  47 E10       30.11F
Akron          SUNNY     56  35  45 VRB7      30.11F
Cleveland      SUNNY     58  34  40 E6        30.14F
Cincinnati     PTSUNNY   54  37  52 NE18      30.04R
Columbus       SUNNY     55  38  53 E13       30.08R
Detroit        MOSUNNY   58  33  39 CALM      30.14F
Chicago O`Hare MOSUNNY   60  28  29 W5        30.13F
Minneapolis    MOSUNNY   55  41  59 NE9       30.09F
Indianapolis   MOSUNNY   56  34  43 E13       30.08S
Toronto Canada MOSUNNY   57  36  44 SW6       30.09S

$$




USA.gov is the U.S. government's official web portal to all federal, state and local government web resources and services.